Tracking 20942 objects as of 10-Jul-2020
HD Live streaming from Space Station
objects crossing your sky now

SL-8 R/B

Track SL-8 R/B now!
10-day predictions
SL-8 R/B is classified as:


NORAD ID: 19257
Int'l Code: 1988-053B
Perigee: 758.7 km
Apogee: 789.3 km
Inclination: 74.1 °
Period: 100.2 minutes
Semi major axis: 7144 km
RCS: 4.3504 m2 (large)
Launch date: June 21, 1988
Source: Commonwealth of Independent States (former USSR) (CIS)
Launch site: PLESETSK MISSILE AND SPACE COMPLEX (PKMTR)

Note: This is a ROCKET BODY
aabbcc
Your satellite tracking list
Your tracking list is empty




NASA's NSSDC Master Catalog

Two Line Element Set (TLE):
1 19257U 88053B   20191.42981194 -.00000011 +00000-0 +50759-5 0  9993
2 19257 074.0501 320.5754 0021403 293.5342 121.1601 14.37472264679168
Source of the keplerian elements: AFSPC